Location: Ajisawe
(8.4333°N, 4.3833°E)
Time: 22:55:44
(UTC+00:00)

A-11 Canister half - Pass Details

Date: 23 April 2021
Orbit: 1514 x 1685 km, 47.2° (Epoch: 15 May)

Event Time Altitude Azimuth Distance (km) Brightness Sun altitude
Rises 18:48:08 0° 252° (WSW) 4,651 12.5 -14.3°
Reaches altitude 10° 18:51:52 10° 265° (W) 3,667 12.1 -15.2°
Maximum altitude 18:59:04 25° 317° (NW) 2,672 10.9 -16.9°
Drops below altitude 10° 19:06:22 10° 10° (N) 3,709 11.1 -18.6°
Sets 19:10:15 0° 23° (NNE) 4,715 11.5 -19.6°
